Weather in Ivanovka

Ukraine / Kherson District     46°44′55″N   33°01′35″E
temp.,
°C
wind,
m/s
gust,
m/s
humid.,
%
clouds,
%
prec.,
mm/h
press.,
hPa
HPBL,
m
26 february, fri
fri2623:00+4wsw489698 0.2 1030199
02:00+5w489798 0.2 1029194
05:00+5w339684 0.0 102865
08:00+5wsw249682 0.0 1027140
11:00+9wsw468486 0.0 1026476
14:00+11wsw477482 0.0 1024541
17:00+9wsw47784 0.0 1022253
20:00+6wsw46892 0.0 1022138
27 february, sat
sat2723:00+5wsw35920 0.0 1020102
02:00+5wnw23930 0.0 102039
05:00+3wnw23962 0.0 101739
08:00+4nw259621 0.0 1017184
11:00+9nw467976 0.0 1017500
14:00+8nnw686986 0.0 1016905
17:00+7nw4872100 0.0 1016784
20:00+5nw4975100 0.1 1017635
28 february, sun
sun2823:00+4nw5981100 0.1 1018506
02:00+2nw499190 0.1 1018319
05:00+3nnw5108873 0.0 1019576
08:00+3nnw599186 0.1 1021526
11:00+3nnw6991100 0.3 1022572
14:00+5nnw576599 0.4 10231074
17:00+4nnw476698 0.1 1023916
20:00+2nw488896 0.1 1025281
1 march, mon
mon123:00+2nw378599 0.1 1026277
02:00+1nw378799 0.2 1026273
05:000nw379497 0.0 1026227
08:00+1nnw468566 0.0 1027382
11:00+4n346658 0.1 1028897
14:00+4n346378 0.2 10281005
17:00+3n5561100 0.1 10281075
20:00+1n367197 0.1 1030174
2 march, tue
tue223:00−1n377848 0.0 1031157
02:00−1n357652 0.0 1032143
05:00−1n348047 0.0 1032120
08:000nnw237064 0.0 1032195
11:00+4nw445463 0.0 10321063
14:00+5wnw466278 0.0 10311060
17:00+4w476891 0.0 1029514
20:00+2wsw5108162 0.0 1028227